| time (UTC) | temp F | wind direction | speed knots | gust knots | rain 1hr in | rain 24hr in | rain mn in | humidity % | barometer mb |
| 20260507205946 | 0 | 42 | 0.9 | 4.3 | 0.00 | 0.00 | 0.00 | 1018.2 | |
| 20260507204945 | 0 | 99 | 0.9 | 1.7 | 0.00 | 0.00 | 0.00 | 1018.3 | |
| 20260507203945 | 0 | 132 | 5.2 | 6.1 | 0.00 | 0.00 | 0.00 | 1018.1 | |
| 20260507202945 | 0 | 94 | 3.5 | 5.2 | 0.00 | 0.00 | 0.00 | 1018.3 | |
| 20260507201943 | 0 | 77 | 0.9 | 4.3 | 0.00 | 0.00 | 0.00 | 1018.1 | |
| 20260507200941 | 0 | 107 | 0.0 | 1.7 | 0.00 | 0.00 | 0.00 | 1018.3 | |
| 20260507195938 | 0 | 64 | 0.9 | 4.3 | 0.00 | 0.00 | 0.00 | 1018.5 | |
| 20260507194933 | 0 | 73 | 2.6 | 5.2 | 0.00 | 0.00 | 0.00 | 1018.6 | |
| 20260507193931 | 0 | 50 | 0.0 | 0.9 | 0.00 | 0.00 | 0.00 | 1018.8 | |
| 20260507192931 | 0 | 56 | 2.6 | 4.3 | 0.00 | 0.00 | 0.00 | 1018.5 | |
| 20260507191930 | 0 | 66 | 2.6 | 5.2 | 0.00 | 0.00 | 0.00 | 1018.4 | |
| 20260507190928 | 0 | 67 | 2.6 | 5.2 | 0.00 | 0.00 | 0.00 | 1018.7 | |
| 20260507185925 | 0 | 101 | 4.3 | 6.1 | 0.00 | 0.00 | 0.00 | 1018.6 | |
| 20260507184924 | 0 | 63 | 1.7 | 2.6 | 0.00 | 0.00 | 0.00 | 1018.8 | |
| 20260507183919 | 0 | 101 | 4.3 | 7.0 | 0.00 | 0.00 | 0.00 | 1019.0 | |
| 20260507182919 | 0 | 61 | 0.9 | 1.7 | 0.00 | 0.00 | 0.00 | 1018.6 | |
| 20260507181917 | 0 | 71 | 0.9 | 1.7 | 0.00 | 0.00 | 0.00 | 1018.9 | |
| 20260507180916 | 0 | 84 | 2.6 | 5.2 | 0.00 | 0.00 | 0.00 | 1019.2 | |
| 20260507175914 | 0 | 75 | 2.6 | 4.3 | 0.00 | 0.00 | 0.00 | 1019.2 | |
| 20260507174914 | 0 | 95 | 0.9 | 1.7 | 0.00 | 0.00 | 0.00 | 1019.4 | |
| 20260507173915 | 0 | 58 | 0.9 | 2.6 | 0.00 | 0.00 | 0.00 | 1019.1 | |
| 20260507172914 | 0 | 57 | 0.9 | 1.7 | 0.00 | 0.00 | 0.00 | 1019.4 | |
| 20260507171912 | 0 | 80 | 0.9 | 2.6 | 0.00 | 0.00 | 0.00 | 1019.8 | |
| 20260507170912 | 0 | 65 | 0.0 | 0.9 | 0.00 | 0.00 | 0.00 | 1019.6 | |
| 20260507165910 | 0 | 84 | 1.7 | 2.6 | 0.00 | 0.00 | 0.00 | 1019.8 | |
| 20260507164908 | 0 | 84 | 1.7 | 2.6 | 0.00 | 0.00 | 0.00 | 1020.0 | |
| 20260507163909 | 0 | 59 | 0.9 | 1.7 | 0.00 | 0.00 | 0.00 | 1020.1 | |
| 20260507162908 | 0 | 79 | 1.7 | 5.2 | 0.00 | 0.00 | 0.00 | 1020.2 | |
| 20260507161907 | 0 | 93 | 2.6 | 5.2 | 0.00 | 0.00 | 0.00 | 1020.6 | |
| 20260507160906 | 0 | 73 | 0.0 | 0.0 | 0.00 | 0.00 | 0.00 | 1020.5 | |
| 20260507155904 | 0 | 77 | 0.0 | 0.0 | 0.00 | 0.00 | 0.00 | 1020.5 | |
| 20260507154903 | 0 | 57 | 0.9 | 1.7 | 0.00 | 0.00 | 0.00 | 1020.6 | |
| 20260507153903 | 0 | 94 | 0.0 | 0.9 | 0.00 | 0.00 | 0.00 | 1020.6 | |
| 20260507152901 | 0 | 77 | 1.7 | 5.2 | 0.00 | 0.00 | 0.00 | 1020.6 | |
| 20260507151900 | 0 | 77 | 0.0 | 0.9 | 0.00 | 0.00 | 0.00 | 1020.9 | |
| 20260507150859 | 0 | 74 | 2.6 | 6.1 | 0.00 | 0.00 | 0.00 | 1020.6 | |
| 20260507145858 | 0 | 79 | 0.0 | 0.9 | 0.00 | 0.00 | 0.00 | 1020.7 | |
| 20260507144857 | 0 | 85 | 0.0 | 0.0 | 0.00 | 0.00 | 0.00 | 1020.8 | |
| 20260507143857 | 0 | 79 | 1.7 | 5.2 | 0.00 | 0.00 | 0.00 | 1020.7 | |
| 20260507142856 | 0 | 90 | 0.9 | 0.9 | 0.00 | 0.00 | 0.00 | 1020.7 | |
| 20260507141855 | 0 | 109 | 0.9 | 0.9 | 0.00 | 0.00 | 0.00 | 1020.9 | |
| 20260507140854 | 0 | 103 | 0.0 | 0.9 | 0.00 | 0.00 | 0.00 | 1021.0 | |
| 20260507135849 | 0 | 102 | 0.0 | 0.0 | 0.00 | 0.00 | 0.00 | 1020.9 | |
| 20260507134849 | 0 | 70 | 0.9 | 0.9 | 0.00 | 0.00 | 0.00 | 1020.9 | |
| 20260507133847 | 0 | 66 | 0.9 | 5.2 | 0.00 | 0.00 | 0.00 | 1020.9 | |
| 20260507132841 | 0 | 85 | 4.3 | 7.0 | 0.00 | 0.00 | 0.00 | 1020.7 | |
| 20260507131840 | 0 | 80 | 0.9 | 2.6 | 0.00 | 0.00 | 0.00 | 1020.9 | |
| 20260507130840 | 0 | 80 | 0.0 | 0.9 | 0.00 | 0.00 | 0.00 | 1020.8 | |
| 20260507125836 | 0 | 73 | 0.0 | 0.0 | 0.00 | 0.00 | 0.00 | 1021.0 | |
| 20260507124836 | 0 | 70 | 0.9 | 2.6 | 0.00 | 0.00 | 0.00 | 1021.0 | |
| 20260507123837 | 0 | 75 | 0.0 | 1.7 | 0.00 | 0.00 | 0.00 | 1020.6 | |
| 20260507122836 | 0 | 77 | 0.0 | 0.0 | 0.00 | 0.00 | 0.00 | 1020.6 | |
| 20260507121834 | 0 | 84 | 0.0 | 0.0 | 0.00 | 0.00 | 0.00 | 1020.3 | |
| 20260507120832 | 0 | 94 | 0.0 | 0.0 | 0.00 | 0.00 | 0.00 | 1020.0 | |
| 20260507115830 | 0 | 89 | 0.0 | 0.0 | 0.00 | 0.00 | 0.00 | 1020.1 | |
| 20260507114828 | 0 | 86 | 0.0 | 0.0 | 0.00 | 0.00 | 0.00 | 1020.0 | |
| 20260507113823 | 0 | 83 | 0.0 | 0.0 | 0.00 | 0.00 | 0.00 | 1019.9 | |
| 20260507112817 | 0 | 67 | 0.0 | 0.0 | 0.00 | 0.00 | 0.00 | 1019.9 | |
| 20260507111818 | 0 | 118 | 0.0 | 0.0 | 0.00 | 0.00 | 0.00 | 1019.6 | |
| 20260507110816 | 0 | 59 | 0.0 | 0.0 | 0.00 | 0.00 | 0.00 | 1019.7 | |
| 20260507105815 | 0 | 109 | 0.0 | 0.0 | 0.00 | 0.00 | 0.00 | 1019.8 | |
| 20260507104815 | 0 | 64 | 0.0 | 0.0 | 0.00 | 0.00 | 0.00 | 1019.5 | |
| 20260507103813 | 0 | 57 | 0.0 | 0.0 | 0.00 | 0.00 | 0.00 | 1019.6 | |
| 20260507102811 | 0 | 71 | 0.0 | 0.0 | 0.00 | 0.00 | 0.00 | 1019.4 | |
| 20260507101810 | 0 | 75 | 0.0 | 0.0 | 0.00 | 0.00 | 0.00 | 1019.5 | |
| 20260507100808 | 0 | 40 | 0.0 | 0.0 | 0.00 | 0.00 | 0.00 | 1019.4 | |
| 20260507095804 | 0 | 55 | 0.0 | 0.0 | 0.00 | 0.00 | 0.00 | 1019.4 | |
| 20260507094802 | 0 | 300 | 0.0 | 0.0 | 0.00 | 0.00 | 0.00 | 1019.1 | |
| 20260507093802 | 0 | 32 | 0.0 | 0.0 | 0.00 | 0.00 | 0.00 | 1019.1 | |
| 20260507092758 | 0 | 25 | 0.0 | 0.0 | 0.00 | 0.00 | 0.00 | 1019.1 | |
| 20260507091756 | 0 | 74 | 0.0 | 0.0 | 0.00 | 0.00 | 0.00 | 1019.1 | |
| 20260507090753 | 0 | 36 | 0.0 | 0.0 | 0.00 | 0.00 | 0.00 | 1019.0 | |
| 20260507085753 | 0 | 81 | 0.0 | 0.0 | 0.00 | 0.00 | 0.00 | 1019.2 | |
| 20260507084753 | 0 | 103 | 0.0 | 0.0 | 0.00 | 0.00 | 0.00 | 1019.2 | |
| 20260507083753 | 0 | 62 | 0.0 | 0.0 | 0.00 | 0.00 | 0.00 | 1019.3 | |
| 20260507082751 | 0 | 47 | 0.0 | 0.0 | 0.00 | 0.00 | 0.00 | 1019.2 | |
| 20260507081750 | 0 | 55 | 0.0 | 0.0 | 0.00 | 0.00 | 0.00 | 1019.2 | |
| 20260507080748 | 0 | 74 | 0.0 | 0.0 | 0.00 | 0.00 | 0.00 | 1019.0 | |
| 20260507075746 | 0 | 51 | 0.0 | 0.0 | 0.00 | 0.00 | 0.00 | 1019.0 | |
| 20260507074744 | 0 | 63 | 0.0 | 0.0 | 0.00 | 0.00 | 0.00 | 1019.2 | |
| 20260507073739 | 0 | 54 | 0.0 | 0.0 | 0.00 | 0.00 | 0.00 | 1019.4 | |
| 20260507072739 | 0 | 92 | 0.0 | 0.0 | 0.00 | 0.00 | 0.00 | 1019.1 | |
| 20260507071740 | 0 | 334 | 0.0 | 0.0 | 0.00 | 0.00 | 0.00 | 1019.4 | |
| 20260507070739 | 0 | 312 | 0.0 | 0.0 | 0.00 | 0.00 | 0.00 | 1019.4 | |
| 20260507065738 | 0 | 86 | 0.0 | 0.0 | 0.00 | 0.00 | 0.00 | 1019.4 | |
| 20260507064738 | 0 | 45 | 0.0 | 0.0 | 0.00 | 0.00 | 0.00 | 1019.7 | |
| 20260507063734 | 0 | 62 | 0.0 | 0.0 | 0.00 | 0.00 | 0.00 | 1019.7 | |
| 20260507062734 | 0 | 51 | 0.0 | 0.0 | 0.00 | 0.00 | 0.00 | 1019.8 | |
| 20260507061729 | 0 | 64 | 0.0 | 0.0 | 0.00 | 0.00 | 0.00 | 1020.0 | |
| 20260507060724 | 0 | 121 | 0.0 | 0.0 | 0.00 | 0.00 | 0.00 | 1020.3 | |
| 20260507055723 | 0 | 48 | 0.0 | 0.0 | 0.00 | 0.00 | 0.00 | 1020.3 | |
| 20260507054720 | 0 | 29 | 0.0 | 0.0 | 0.00 | 0.00 | 0.00 | 1020.2 | |
| 20260507053715 | 0 | 41 | 0.0 | 0.0 | 0.00 | 0.00 | 0.00 | 1020.4 | |
| 20260507052712 | 0 | 62 | 0.0 | 0.0 | 0.00 | 0.00 | 0.00 | 1020.4 | |
| 20260507051711 | 0 | 44 | 0.0 | 0.0 | 0.00 | 0.00 | 0.00 | 1020.6 | |
| 20260507050710 | 0 | 56 | 0.0 | 0.0 | 0.00 | 0.00 | 0.00 | 1020.8 | |
| 20260507045710 | 0 | 92 | 0.0 | 0.0 | 0.00 | 0.00 | 0.00 | 1021.0 | |
| 20260507044709 | 0 | 46 | 0.0 | 0.0 | 0.00 | 0.00 | 0.00 | 1020.9 | |
| 20260507043708 | 0 | 53 | 0.0 | 0.0 | 0.00 | 0.00 | 0.00 | 1021.1 | |
| 20260507042707 | 0 | 71 | 0.0 | 0.0 | 0.00 | 0.00 | 0.00 | 1021.1 | |
| 20260507041706 | 0 | 97 | 0.0 | 0.0 | 0.00 | 0.00 | 0.00 | 1021.2 | |
| 20260507040705 | 0 | 60 | 0.0 | 0.0 | 0.00 | 0.00 | 0.00 | 1021.4 | |
| 20260507035703 | 0 | 86 | 0.0 | 0.0 | 0.00 | 0.00 | 0.00 | 1021.3 | |
| 20260507034702 | 0 | 84 | 0.0 | 0.0 | 0.00 | 0.00 | 0.00 | 1021.6 | |
| 20260507033658 | 0 | 163 | 0.0 | 0.0 | 0.00 | 0.00 | 0.00 | 1021.6 | |
| 20260507032658 | 0 | 43 | 0.0 | 0.0 | 0.00 | 0.00 | 0.00 | 1021.5 | |
| 20260507031657 | 0 | 61 | 0.0 | 0.0 | 0.00 | 0.00 | 0.00 | 1021.2 | |
| 20260507030656 | 0 | 94 | 0.0 | 0.0 | 0.00 | 0.00 | 0.00 | 1021.5 | |
| 20260507025651 | 0 | 82 | 0.0 | 0.0 | 0.00 | 0.00 | 0.00 | 1021.3 | |
| 20260507024646 | 0 | 97 | 0.0 | 0.0 | 0.00 | 0.00 | 0.00 | 1021.4 | |
| 20260507023644 | 0 | 43 | 0.0 | 0.0 | 0.00 | 0.00 | 0.00 | 1021.3 | |
| 20260507022638 | 0 | 99 | 0.0 | 0.0 | 0.00 | 0.00 | 0.00 | 1021.2 | |
| 20260507021636 | 0 | 179 | 0.0 | 0.0 | 0.00 | 0.00 | 0.00 | 1021.1 | |
| 20260507020636 | 0 | 122 | 0.0 | 0.0 | 0.00 | 0.00 | 0.00 | 1021.1 | |
| 20260507015631 | 0 | 13 | 0.0 | 0.0 | 0.00 | 0.00 | 0.00 | 1021.0 | |
| 20260507014630 | 0 | 30 | 0.0 | 0.0 | 0.00 | 0.00 | 0.00 | 1021.0 | |
| 20260507013629 | 0 | 29 | 0.0 | 0.0 | 0.00 | 0.00 | 0.00 | 1020.7 | |
| 20260507012629 | 0 | 33 | 0.0 | 0.0 | 0.00 | 0.00 | 0.00 | 1020.7 | |
| 20260507011629 | 0 | 30 | 0.0 | 0.0 | 0.00 | 0.00 | 0.00 | 1020.6 | |
| 20260507010626 | 0 | 20 | 0.0 | 0.0 | 0.00 | 0.00 | 0.00 | 1020.4 | |
| 20260507005625 | 0 | 24 | 0.0 | 0.0 | 0.00 | 0.00 | 0.00 | 1020.6 | |
| 20260507004624 | 0 | 340 | 0.0 | 0.0 | 0.00 | 0.00 | 0.00 | 1020.5 | |
| 20260507003624 | 0 | 18 | 0.0 | 0.0 | 0.00 | 0.00 | 0.00 | 1020.5 | |
| 20260507002621 | 0 | 13 | 0.0 | 0.0 | 0.00 | 0.00 | 0.00 | 1020.3 | |
| 20260507001619 | 0 | 9 | 0.0 | 0.0 | 0.00 | 0.00 | 0.00 | 1020.1 | |
| 20260507000618 | 0 | 41 | 0.0 | 0.0 | 0.00 | 0.00 | 0.00 | 1020.1 | |
| 20260506235617 | 0 | 23 | 0.0 | 0.0 | 0.00 | 0.00 | 0.00 | 1020.2 | |
| 20260506234614 | 0 | 341 | 0.0 | 0.0 | 0.00 | 0.00 | 0.00 | 1020.3 | |
| 20260506233613 | 0 | 334 | 0.0 | 0.0 | 0.00 | 0.00 | 0.00 | 1019.9 | |
| 20260506232612 | 0 | 354 | 0.0 | 0.0 | 0.00 | 0.00 | 0.00 | 1019.9 | |
| 20260506231611 | 0 | 0 | 0.0 | 0.0 | 0.00 | 0.00 | 0.00 | 1019.7 | |
| 20260506230605 | 0 | 342 | 0.0 | 0.0 | 0.00 | 0.00 | 0.00 | 1019.8 | |
| 20260506225605 | 0 | 21 | 0.0 | 0.0 | 0.00 | 0.00 | 0.00 | 1019.9 | |
| 20260506224604 | 0 | 342 | 0.0 | 0.0 | 0.00 | 0.00 | 0.00 | 1019.4 | |
| 20260506223602 | 0 | 23 | 0.0 | 0.0 | 0.00 | 0.00 | 0.00 | 1019.5 | |
| 20260506222602 | 0 | 330 | 0.0 | 0.9 | 0.00 | 0.00 | 0.00 | 1019.3 | |
| 20260506221602 | 0 | 16 | 0.0 | 0.0 | 0.00 | 0.00 | 0.00 | 1019.5 | |
| 20260506220601 | 0 | 347 | 0.0 | 0.0 | 0.00 | 0.00 | 0.00 | 1019.2 | |
| 20260506215559 | 0 | 335 | 0.0 | 0.0 | 0.00 | 0.00 | 0.00 | 1019.1 | |
| 20260506214558 | 0 | 36 | 0.0 | 0.0 | 0.00 | 0.00 | 0.00 | 1018.9 | |
| 20260506213553 | 0 | 39 | 0.0 | 0.0 | 0.00 | 0.00 | 0.00 | 1018.8 | |
| 20260506212553 | 0 | 27 | 0.0 | 0.0 | 0.00 | 0.00 | 0.00 | 1019.1 | |
| 20260506211550 | 0 | 40 | 0.0 | 0.0 | 0.00 | 0.00 | 0.00 | 1018.7 | |
| 20260506210550 | 0 | 6 | 0.0 | 0.0 | 0.00 | 0.00 | 0.00 | 1019.0 |